When you browse on this site, cookies collect data to enhance your experience and personalize the content and advertising you see.
Visit our Privacy Policy to learn more. By continuing to use the site, you agree to this use of cookies and data.
  • In Österreich
  • Länderverzeichnis
  • Für 7 Tage
  • Wassertemperatur
  • Satellitenkarten
  • Wetterkarte
  • News
  • Widgets
  • user-avatar
    Anmelden

    Stündliche Wetter Lezhe

    Heute, 20 April, Samstag

    Zeit Temperatur Niederschläge Wind Luftdruck Luftfeuchtigkeit
    00:00 +12°C° 0 mm 2 m/S 744 mmHg 64%
    01:00 +12°C° 0 mm 2 m/S 743 mmHg 65%
    02:00 +10°C° 0 mm 2 m/S 743 mmHg 65%
    03:00 +10°C° 0 mm 2 m/S 743 mmHg 66%
    04:00 +10°C° 0 mm 2 m/S 742 mmHg 66%
    05:00 +12°C° 0 mm 2 m/S 742 mmHg 63%
    06:00 +13°C° 0 mm 2 m/S 742 mmHg 60%
    07:00 +15°C° 0 mm 2 m/S 742 mmHg 55%
    08:00 +17°C° 0 mm 2 m/S 742 mmHg 48%
    09:00 +18°C° 0 mm 2 m/S 742 mmHg 41%
    10:00 +19°C° 0 mm 2 m/S 742 mmHg 34%
    11:00 +20°C° 0 mm 2 m/S 742 mmHg 34%
    12:00 +21°C° 0 mm 3 m/S 742 mmHg 33%
    13:00 +21°C° 0 mm 3 m/S 742 mmHg 32%
    14:00 +21°C° 0 mm 3 m/S 742 mmHg 37%
    15:00 +20°C° 0 mm 3 m/S 742 mmHg 41%
    16:00 +19°C° 0 mm 3 m/S 742 mmHg 46%
    17:00 +18°C° 0 mm 3 m/S 742 mmHg 50%
    18:00 +16°C° 0 mm 3 m/S 742 mmHg 53%
    19:00 +14°C° 0 mm 3 m/S 743 mmHg 57%
    20:00 +13°C° 0 mm 3 m/S 743 mmHg 57%
    21:00 +12°C° 0 mm 3 m/S 743 mmHg 58%
    22:00 +11°C° 0 mm 3 m/S 744 mmHg 58%
    23:00 +11°C° 0 mm 3 m/S 744 mmHg 59%

    Morgen, 21 April, Sonntag

    Zeit Temperatur Niederschläge Wind Luftdruck Luftfeuchtigkeit
    00:00 +10°C° 0 mm 3 m/S 744 mmHg 60%
    01:00 +10°C° 0 mm 3 m/S 744 mmHg 61%
    02:00 +10°C° 0 mm 3 m/S 743 mmHg 61%
    03:00 +9°C° 0 mm 3 m/S 743 mmHg 61%
    04:00 +9°C° 0 mm 3 m/S 743 mmHg 61%
    05:00 +10°C° 0 mm 2 m/S 743 mmHg 58%
    06:00 +12°C° 0 mm 2 m/S 743 mmHg 56%
    07:00 +14°C° 0 mm 2 m/S 743 mmHg 54%
    08:00 +15°C° 0 mm 2 m/S 743 mmHg 50%
    09:00 +17°C° 0 mm 2 m/S 743 mmHg 47%
    10:00 +19°C° 0 mm 1 m/S 743 mmHg 43%
    11:00 +18°C° 0 mm 2 m/S 742 mmHg 46%
    12:00 +19°C° 0 mm 2 m/S 742 mmHg 49%
    13:00 +19°C° 0 mm 2 m/S 742 mmHg 51%
    14:00 +19°C° 0.1 mm 2 m/S 741 mmHg 54%
    15:00 +18°C° 0.1 mm 2 m/S 741 mmHg 57%
    16:00 +18°C° 0.1 mm 2 m/S 740 mmHg 61%
    17:00 +16°C° 0 mm 2 m/S 740 mmHg 70%
    18:00 +15°C° 0 mm 1 m/S 740 mmHg 79%
    19:00 +13°C° 0 mm 1 m/S 740 mmHg 88%
    20:00 +13°C° 0 mm 1 m/S 741 mmHg 90%
    21:00 +12°C° 0 mm 1 m/S 741 mmHg 92%
    22:00 +12°C° 0 mm 1 m/S 741 mmHg 93%
    23:00 +12°C° 0 mm 1 m/S 741 mmHg 93%

    übermorgen, 22 April, Montag

    Zeit Temperatur Niederschläge Wind Luftdruck Luftfeuchtigkeit
    00:00 +12°C° 0 mm 1 m/S 741 mmHg 92%
    01:00 +11°C° 0 mm 1 m/S 741 mmHg 92%
    02:00 +11°C° 0 mm 1 m/S 740 mmHg 91%
    03:00 +11°C° 0 mm 1 m/S 740 mmHg 91%
    04:00 +10°C° 0 mm 1 m/S 740 mmHg 90%
    05:00 +11°C° 0 mm 1 m/S 739 mmHg 83%
    06:00 +13°C° 0 mm 1 m/S 739 mmHg 76%
    07:00 +14°C° 0 mm 1 m/S 739 mmHg 70%
    08:00 +16°C° 0 mm 1 m/S 739 mmHg 61%
    09:00 +19°C° 0 mm 1 m/S 739 mmHg 53%
    10:00 +20°C° 0 mm 2 m/S 738 mmHg 44%
    11:00 +19°C° 0 mm 2 m/S 738 mmHg 47%
    12:00 +20°C° 0 mm 1 m/S 738 mmHg 49%
    13:00 +20°C° 0 mm 1 m/S 737 mmHg 52%
    14:00 +20°C° 0 mm 1 m/S 737 mmHg 52%
    15:00 +20°C° 0 mm 1 m/S 737 mmHg 52%
    16:00 +21°C° 0 mm 1 m/S 736 mmHg 52%
    17:00 +19°C° 0 mm 1 m/S 736 mmHg 57%
    18:00 +18°C° 0 mm 1 m/S 736 mmHg 63%
    19:00 +15°C° 0 mm 1 m/S 736 mmHg 69%
    20:00 +15°C° 0.7 mm 2 m/S 736 mmHg 75%
    21:00 +14°C° 0.7 mm 2 m/S 736 mmHg 80%
    22:00 +13°C° 0.7 mm 3 m/S 736 mmHg 86%
    23:00 +14°C° 0 mm 2 m/S 736 mmHg 85%

    23 April, Dienstag

    Zeit Temperatur Niederschläge Wind Luftdruck Luftfeuchtigkeit
    00:00 +14°C° 0 mm 2 m/S 736 mmHg 83%
    01:00 +14°C° 0 mm 2 m/S 736 mmHg 81%
    02:00 +14°C° 0 mm 2 m/S 736 mmHg 81%
    03:00 +14°C° 0 mm 2 m/S 735 mmHg 80%
    04:00 +13°C° 0 mm 2 m/S 735 mmHg 79%
    05:00 +15°C° 0 mm 2 m/S 735 mmHg 75%
    06:00 +16°C° 0 mm 2 m/S 735 mmHg 72%
    07:00 +17°C° 0 mm 2 m/S 735 mmHg 68%
    08:00 +19°C° 0 mm 3 m/S 736 mmHg 59%
    09:00 +20°C° 0 mm 4 m/S 736 mmHg 50%
    10:00 +22°C° 0 mm 4 m/S 736 mmHg 42%
    11:00 +22°C° 0 mm 5 m/S 736 mmHg 43%
    12:00 +23°C° 0 mm 6 m/S 736 mmHg 43%
    13:00 +23°C° 0 mm 6 m/S 736 mmHg 44%
    14:00 +22°C° 0.1 mm 6 m/S 736 mmHg 46%
    15:00 +22°C° 0.1 mm 6 m/S 737 mmHg 49%
    16:00 +21°C° 0.1 mm 6 m/S 737 mmHg 52%
    17:00 +19°C° 0 mm 4 m/S 737 mmHg 59%
    18:00 +18°C° 0 mm 3 m/S 737 mmHg 65%
    19:00 +16°C° 0 mm 1 m/S 738 mmHg 72%
    20:00 +16°C° 0 mm 1 m/S 738 mmHg 73%
    21:00 +15°C° 0 mm 1 m/S 739 mmHg 73%
    22:00 +15°C° 0 mm 2 m/S 739 mmHg 73%
    23:00 +15°C° 0 mm 2 m/S 739 mmHg 73%

    24 April, Mittwoch

    Zeit Temperatur Niederschläge Wind Luftdruck Luftfeuchtigkeit
    00:00 +14°C° 0 mm 2 m/S 739 mmHg 73%
    01:00 +14°C° 0 mm 2 m/S 739 mmHg 73%
    02:00 +14°C° 0 mm 2 m/S 739 mmHg 73%
    03:00 +14°C° 0 mm 2 m/S 739 mmHg 72%
    04:00 +14°C° 0 mm 2 m/S 739 mmHg 71%
    05:00 +15°C° 0 mm 2 m/S 740 mmHg 67%
    06:00 +16°C° 0 mm 2 m/S 740 mmHg 63%
    07:00 +18°C° 0 mm 2 m/S 740 mmHg 60%
    08:00 +20°C° 0 mm 2 m/S 740 mmHg 52%
    09:00 +24°C° 0 mm 1 m/S 740 mmHg 44%
    10:00 +26°C° 0 mm 1 m/S 740 mmHg 36%
    11:00 +27°C° 0 mm 1 m/S 740 mmHg 35%
    12:00 +27°C° 0 mm 2 m/S 740 mmHg 34%
    13:00 +28°C° 0 mm 2 m/S 740 mmHg 32%
    14:00 +27°C° 0 mm 2 m/S 740 mmHg 35%
    15:00 +26°C° 0 mm 3 m/S 740 mmHg 39%
    16:00 +25°C° 0 mm 3 m/S 739 mmHg 42%
    17:00 +22°C° 0 mm 3 m/S 740 mmHg 47%
    18:00 +19°C° 0 mm 2 m/S 740 mmHg 53%
    19:00 +17°C° 0 mm 2 m/S 740 mmHg 58%
    20:00 +18°C° 0 mm 1 m/S 741 mmHg 58%
    21:00 +16°C° 0 mm 1 m/S 741 mmHg 58%
    22:00 +16°C° 0 mm 1 m/S 741 mmHg 58%
    23:00 +16°C° 0 mm 1 m/S 741 mmHg 59%

    25 April, Donnerstag

    Zeit Temperatur Niederschläge Wind Luftdruck Luftfeuchtigkeit
    00:00 +16°C° 0 mm 1 m/S 741 mmHg 61%
    01:00 +15°C° 0 mm 1 m/S 741 mmHg 62%
    02:00 +15°C° 0 mm 1 m/S 741 mmHg 64%
    03:00 +15°C° 0 mm 1 m/S 741 mmHg 66%
    04:00 +15°C° 0 mm 1 m/S 741 mmHg 68%
    05:00 +18°C° 0 mm 1 m/S 741 mmHg 65%
    06:00 +19°C° 0 mm 1 m/S 741 mmHg 63%
    07:00 +21°C° 0 mm 1 m/S 742 mmHg 60%
    08:00 +22°C° 0 mm 1 m/S 742 mmHg 55%
    09:00 +24°C° 0 mm 1 m/S 742 mmHg 49%
    10:00 +25°C° 0 mm 1 m/S 742 mmHg 43%
    11:00 +26°C° 0 mm 1 m/S 741 mmHg 41%
    12:00 +26°C° 0 mm 1 m/S 741 mmHg 39%
    13:00 +27°C° 0 mm 2 m/S 741 mmHg 37%
    14:00 +27°C° 0 mm 2 m/S 741 mmHg 38%
    15:00 +27°C° 0 mm 2 m/S 740 mmHg 38%
    16:00 +27°C° 0 mm 2 m/S 740 mmHg 39%
    17:00 +25°C° 0 mm 2 m/S 740 mmHg 44%
    18:00 +23°C° 0 mm 1 m/S 740 mmHg 49%
    19:00 +22°C° 0 mm 1 m/S 740 mmHg 54%
    20:00 +20°C° 0.1 mm 2 m/S 740 mmHg 59%
    21:00 +19°C° 0.1 mm 2 m/S 740 mmHg 64%
    22:00 +18°C° 0.1 mm 2 m/S 740 mmHg 69%
    23:00 +18°C° 0 mm 2 m/S 740 mmHg 70%
    Mehr zeigen